Staunton, VA

4:30 AM EDT on September 20, 2019 (GMT -0400)
Shenandoah Valley Regional

Weather History for KSHD - July, 2019

Change the Weather History Date:

Friday, July 19, 2019

  Actual Average Record
Temperature  
Mean Temperature 81 °F -  
Max Temperature 95 °F 84 °F 96 °F (1997)
Min Temperature 67 °F 63 °F 52 °F (2018)
Cooling Degree Days 16    
Growing Degree Days 31 (Base 50)    
Moisture  
Dew Point 70 °F    
Average Humidity 72    
Maximum Humidity 100    
Minimum Humidity 38    
Precipitation  
Precipitation 0.00 in - - ()
Sea Level Pressure  
Sea Level Pressure 30.03 in    
Wind  
Wind Speed 2 mph (SSW)    
Max Wind Speed 10 mph    
Max Gust Speed -    
Visibility 9 miles    
Events Fog    
Averages and records for this station are not official NWS values.
T = Trace of Precipitation, MM = Missing Value Source: NWS Daily Summary

Daily Weather History Graph

Daily Weather History Graph

Search for Another Location

Airport or City:

Astronomy

Jul. 19, 2019 Rise Set
Actual Time 6:07 AM EDT 8:36 PM EDT
Civil Twilight 5:36 AM EDT 9:06 PM EDT
Nautical Twilight 4:58 AM EDT 9:44 PM EDT
Astronomical Twilight 4:17 AM EDT 10:25 PM EDT
Moon 10:35 PM EDT (7/19) 8:30 AM EDT (7/19)
Length of Visible Light 15h 29m
Length of Day
14h 29m
Waning Gibbous, 93% of the Moon is Illuminated
Jul 19
Waning Gibbous
Jul 24
Last Quarter
Jul 31
New
Aug 7
First Quarter
Aug 15
Full

Hourly Weather History & Observations

Time (EDT) Temp. Heat Index Dew Point Humidity Pressure Visibility Wind Dir Wind Speed Gust Speed Precip Events Conditions
12:10 AM 72.3 °F - 70.3 °F 93% 30.02 in 10.0 mi Calm Calm - N/A   Clear
12:30 AM 71.6 °F - 70.2 °F 95% 30.02 in 10.0 mi Calm Calm - N/A   Clear
12:50 AM 71.1 °F - 69.8 °F 96% 30.02 in 10.0 mi Calm Calm - N/A   Clear
1:10 AM 70.3 °F - 69.3 °F 96% 30.02 in 10.0 mi Calm Calm - N/A   Clear
1:30 AM 70.5 °F - 69.8 °F 98% 30.02 in 10.0 mi Calm Calm - N/A   Clear
1:50 AM 70.0 °F - 69.1 °F 97% 30.03 in 10.0 mi Calm Calm - N/A   Clear
2:10 AM 70.0 °F - 69.1 °F 97% 30.02 in 10.0 mi Calm Calm - N/A   Clear
2:30 AM 69.8 °F - 68.9 °F 97% 30.02 in 7.0 mi Calm Calm - N/A   Clear
2:50 AM 68.4 °F - 67.6 °F 98% 30.01 in 7.0 mi Calm Calm - N/A   Clear
3:10 AM 69.8 °F - 69.3 °F 98% 30.02 in 10.0 mi Calm Calm - N/A   Clear
3:30 AM 68.9 °F - 68.2 °F 98% 30.01 in 7.0 mi Calm Calm - N/A   Clear
3:50 AM 68.9 °F - 68.4 °F 98% 30.01 in 5.0 mi Calm Calm - N/A   Clear
4:10 AM 68.9 °F - 68.5 °F 99% 30.01 in 4.0 mi Calm Calm - N/A   Clear
4:30 AM 68.7 °F - 68.4 °F 99% 30.02 in 7.0 mi Calm Calm - N/A   Clear
4:50 AM 68.7 °F - 68.4 °F 99% 30.02 in 4.0 mi Calm Calm - N/A   Mostly Cloudy
5:10 AM 68.5 °F - 68.2 °F 99% 30.01 in 5.0 mi Calm Calm - N/A   Overcast
5:30 AM 68.0 °F - 67.6 °F 99% 30.02 in 0.5 mi Calm Calm - N/A Fog Fog
5:50 AM 68.0 °F - 67.6 °F 99% 30.03 in 0.8 mi Calm Calm - N/A   Overcast
6:10 AM 67.8 °F - 67.6 °F 99% 30.03 in 0.2 mi Calm Calm - N/A Fog Fog
6:30 AM 68.0 °F - 68.0 °F 100% 30.03 in 0.2 mi Calm Calm - N/A Fog Fog
6:50 AM 68.2 °F - 68.0 °F 99% 30.04 in 0.5 mi Calm Calm - N/A Fog Fog
7:10 AM 70.0 °F - 69.8 °F 99% 30.04 in 10.0 mi Calm Calm - N/A   Scattered Clouds
7:30 AM 71.8 °F - 71.4 °F 99% 30.05 in 10.0 mi SW 3.5 mph - N/A   Clear
7:50 AM 73.9 °F - 71.6 °F 92% 30.05 in 10.0 mi Calm Calm - N/A   Clear
8:10 AM 75.6 °F - 71.6 °F 87% 30.05 in 10.0 mi SSE 3.5 mph - N/A   Clear
8:30 AM 77.9 °F - 71.8 °F 81% 30.05 in 10.0 mi South 3.5 mph - N/A   Clear
8:50 AM 80.1 °F 83.4 °F 70.9 °F 73% 30.06 in 10.0 mi Calm Calm - N/A   Clear
9:10 AM 81.1 °F 85.2 °F 71.4 °F 72% 30.07 in 10.0 mi Calm Calm - N/A   Clear
9:30 AM 82.4 °F 87.0 °F 71.2 °F 69% 30.07 in 10.0 mi SE 4.6 mph - N/A   Clear
9:50 AM 83.3 °F 87.6 °F 70.3 °F 65% 30.07 in 10.0 mi Calm Calm - N/A   Clear
10:10 AM 84.9 °F 89.7 °F 70.5 °F 62% 30.07 in 10.0 mi SW 4.6 mph - N/A   Clear
10:30 AM 85.3 °F 89.8 °F 69.8 °F 60% 30.07 in 10.0 mi Calm Calm - N/A   Clear
10:50 AM 86.5 °F 91.8 °F 70.5 °F 59% 30.06 in 10.0 mi Calm Calm - N/A   Clear
11:10 AM 87.6 °F 92.7 °F 70.0 °F 56% 30.06 in 10.0 mi WSW 3.5 mph - N/A   Clear
11:30 AM 87.8 °F 93.0 °F 70.5 °F 56% 30.07 in 10.0 mi SSE 3.5 mph - N/A   Clear
11:50 AM 89.2 °F 94.5 °F 70.2 °F 53% 30.07 in 10.0 mi Calm Calm - N/A   Clear
12:10 PM 90.7 °F 96.9 °F 70.9 °F 52% 30.07 in 10.0 mi SSW 4.6 mph - N/A   Scattered Clouds
12:30 PM 90.5 °F 97.0 °F 71.4 °F 53% 30.07 in 10.0 mi South 3.5 mph - N/A   Clear
12:50 PM 92.1 °F 98.8 °F 71.2 °F 50% 30.07 in 10.0 mi SSW 3.5 mph - N/A   Clear
1:10 PM 91.6 °F 97.7 °F 70.5 °F 50% 30.06 in 10.0 mi SE 4.6 mph - N/A   Scattered Clouds
1:30 PM 93.2 °F 99.4 °F 70.3 °F 47% 30.05 in 10.0 mi Calm Calm - N/A   Scattered Clouds
1:50 PM 93.0 °F 98.4 °F 69.4 °F 46% 30.05 in 10.0 mi Calm Calm - N/A   Mostly Cloudy
2:10 PM 93.2 °F 99.4 °F 70.3 °F 47% 30.04 in 10.0 mi WSW 4.6 mph - N/A   Mostly Cloudy
2:30 PM 94.1 °F 100.0 °F 70.0 °F 45% 30.03 in 10.0 mi WSW 5.8 mph - N/A   Scattered Clouds
3:10 PM 92.7 °F 97.7 °F 69.3 °F 46% 30.03 in 10.0 mi South 6.9 mph - N/A   Scattered Clouds
3:30 PM 94.1 °F 99.5 °F 69.4 °F 44% 30.02 in 10.0 mi South 9.2 mph - N/A   Mostly Cloudy
3:50 PM 91.9 °F 96.4 °F 68.4 °F 46% 30.01 in 10.0 mi South 6.9 mph - N/A   Scattered Clouds
4:10 PM 95.5 °F 99.4 °F 66.9 °F 39% 30.01 in 10.0 mi SSW 8.1 mph - N/A   Scattered Clouds
4:30 PM 95.5 °F 99.4 °F 66.9 °F 39% 30.00 in 10.0 mi SSW 9.2 mph - N/A   Clear
4:50 PM 95.2 °F 98.8 °F 66.7 °F 39% 30.00 in 10.0 mi South 10.4 mph - N/A   Clear
5:10 PM 95.0 °F 98.5 °F 66.4 °F 39% 30.00 in 10.0 mi South 9.2 mph - N/A   Clear
5:30 PM 95.0 °F 97.9 °F 65.8 °F 38% 29.99 in 10.0 mi SSW 9.2 mph - N/A   Scattered Clouds
5:50 PM 94.3 °F 98.2 °F 67.3 °F 41% 29.99 in 10.0 mi SSW 9.2 mph - N/A   Clear
6:10 PM 94.1 °F 99.5 °F 69.3 °F 44% 29.98 in 10.0 mi SW 9.2 mph - N/A   Clear
6:30 PM 93.0 °F 99.0 °F 69.8 °F 47% 29.98 in 10.0 mi SW 10.4 mph - N/A   Clear
6:50 PM 92.3 °F 98.1 °F 70.2 °F 48% 29.98 in 10.0 mi SSW 9.2 mph - N/A   Clear
7:10 PM 91.4 °F 97.3 °F 70.3 °F 50% 29.98 in 10.0 mi SSW 9.2 mph - N/A   Clear
7:30 PM 90.5 °F 96.5 °F 70.9 °F 52% 29.99 in 10.0 mi SW 6.9 mph - N/A   Scattered Clouds
7:50 PM 88.9 °F 95.1 °F 71.4 °F 56% 29.99 in 10.0 mi SSW 5.8 mph - N/A   Clear
8:10 PM 87.3 °F 93.2 °F 71.2 °F 59% 29.99 in 10.0 mi SSW 6.9 mph - N/A   Scattered Clouds
8:30 PM 85.5 °F 90.8 °F 71.2 °F 62% 30.00 in 10.0 mi SSW 4.6 mph - N/A   Scattered Clouds
8:50 PM 83.7 °F 88.9 °F 71.6 °F 67% 30.00 in 10.0 mi Calm Calm - N/A   Clear
9:10 PM 82.2 °F 86.9 °F 71.6 °F 70% 30.01 in 10.0 mi Calm Calm - N/A   Clear
9:30 PM 81.1 °F 85.4 °F 71.6 °F 73% 30.02 in 10.0 mi Calm Calm - N/A   Clear
9:50 PM 81.5 °F 85.7 °F 71.4 °F 71% 30.03 in 10.0 mi Calm Calm - N/A   Clear
10:10 PM 79.9 °F - 71.6 °F 76% 30.03 in 10.0 mi Calm Calm - N/A   Clear
10:30 PM 79.2 °F - 71.4 °F 77% 30.04 in 10.0 mi Calm Calm - N/A   Clear
10:50 PM 77.4 °F - 71.1 °F 81% 30.04 in 10.0 mi Calm Calm - N/A   Clear
11:10 PM 77.2 °F - 71.2 °F 82% 30.03 in 10.0 mi Calm Calm - N/A   Clear
11:30 PM 75.0 °F - 70.7 °F 86% 30.03 in 10.0 mi Calm Calm - N/A   Clear
11:50 PM 75.2 °F - 70.7 °F 86% 30.03 in 10.0 mi Calm Calm - N/A   Clear